Location: Berlin
(42.3812°N, 71.6370°W)
Time: 04:57:42
(UTC+00:00)

Cosmos 1725 Rocket - Pass Details

Date: 15 November 2025
Orbit: 962 x 989 km, 82.9° (Epoch: 09 December)

Event Time Altitude Azimuth Distance (km) Brightness Sun altitude
Rises 09:37:42 0° 345° (NNW) 3,711 6.8 -22.1°
Reaches altitude 10° 09:40:20 10° 339° (NNW) 2,757 6.1 -21.7°
Maximum altitude 09:46:14 43° 271° (W) 1,354 4.3 -20.6°
Drops below altitude 10° 09:52:05 10° 202° (SSW) 2,729 6.2 -19.5°
Sets 09:54:42 0° 195° (SSW) 3,669 6.9 -19.0°
